Regional Weather Roundup
Issued by NWS

Home | Current Version | Previous Version | Text Only | Print | Product List | Glossary On
Versions: 1 2 3 4 5 6 7 8 9 10 11 12 13 14 15 16 17 18 19 20 21 22 23 24 25 26 27 28 29 30 31 32 33 34 35 36 37 38 39 40 41 42 43 44 45 46 47 48 49 50
000
ASUS45 KBOI 221710
RWRID
WEATHER ROUNDUP FOR IDAHO
NATIONAL WEATHER SERVICE BOISE ID
1100 AM MDT MON SEP 22 2014

NOTE: "FAIR" INDICATES FEW OR NO CLOUDS BELOW 12000 FEET
WITH NO SIGNIFICANT WEATHER AND/OR OBSTRUCTIONS TO VISIBILITY

IDZ012-014-221800-
SOUTHWEST IDAHO


CITY           SKY/WX    TMP DP  RH WIND       PRES   REMARKS
BOISE          SUNNY     71  54  54 SE7       30.07R
CALDWELL       SUNNY     72  52  49 S7        30.09R
MOUNTAIN HOME  MOSUNNY   68  58  69 SE15      30.08R
$$

IDZ016-017-221800-
SOUTHCENTRAL IDAHO


CITY           SKY/WX    TMP DP  RH WIND       PRES   REMARKS
BURLEY         CLOUDY    64  52  64 SW7       30.13S
JEROME         CLOUDY    62  50  64 E5        30.14R
TWIN FALLS     CLOUDY    64  53  67 NE3       30.13R
$$

IDZ019>023-221800-
SOUTHEAST IDAHO


CITY           SKY/WX    TMP DP  RH WIND       PRES   REMARKS
IDAHO FALLS    PTSUNNY   62  55  77 SW5       30.17S
POCATELLO      MOSUNNY   67  55  65 SW8       30.16S
REXBURG        CLOUDY    59  52  77 SW9       30.17S
$$

IDZ006-010-011-018-031-032-221800-
CENTRAL IDAHO MOUNTAINS


CITY           SKY/WX    TMP DP  RH WIND       PRES   REMARKS
MCCALL         PTSUNNY   63  49  60 CALM      30.14R
HAILEY         MOSUNNY   61  54  77 W5        30.19S
STANLEY          N/A     56  50  80 CALM      30.22S
SALMON         PTSUNNY   64  52  63 SW3       30.08S
CHALLIS        CLOUDY    57  55  93 S3        30.16R
$$

IDZ002-004-006-007-026-221800-
NORTHERN IDAHO


CITY           SKY/WX    TMP DP  RH WIND       PRES   REMARKS
LEWISTON       CLOUDY    64  46  52 E5        29.94R
LOWELL           N/A     62  52  69 CALM      30.00S
COEUR D`ALENE  PTSUNNY   64  52  63 SE5       29.96S
MULLAN PASS    PTSUNNY   64  38  38 VRB7      30.12R
$$



USA.gov is the U.S. government's official web portal to all federal, state and local government web resources and services.